Погода в Букане

Иран     36°38′15″N   46°01′35″E
темп.,
°C
ветер,
м/с
пор.,
м/с
влажн.,
%
обл.,
%
осадки,
мм/ч
давл.,
гПа
погр.,
м
14 мая, пт
пт1401:30+13сз226284 0.0 101723
04:30+11ссз22671 0.0 101613
07:30+13сз23710 0.0 1017127
10:30+19с44440 0.0 10161085
13:30+23ссв452722 0.0 10142816
16:30+23ссз782826 0.0 10122610
19:30+20ссв35376 0.0 1012213
22:30+15с22485 0.0 101412
15 мая, сб
сб1501:30+13всв11555 0.0 101411
04:30+12сз22540 0.0 101412
07:30+13сз22580 0.0 101655
10:30+19с44290 0.0 1015958
13:30+23ссв45180 0.0 10122248
16:30+24с65170 0.0 10102862
19:30+20сз46350 0.0 1011226
22:30+15сз22380 0.0 101312
16 мая, вс
вс1601:30+13ююв113924 0.0 101211
04:30+12юв11446 0.0 101311
07:30+15ююв11540 0.0 101412
10:30+20юв34370 0.0 10131133
13:30+24всв22254 0.0 10112567
16:30+26св11205 0.0 10083193
19:30+23с11311 0.0 100819
22:30+17зсз22365 0.0 101011
17 мая, пн
пн1701:30+15зсз33634 0.0 101235
04:30+13ююз11673 0.0 101211
07:30+15ююз33575 0.0 101357
10:30+23ююв23290 0.0 1011811
13:30+28юз461568 0.0 10094018
16:30+28зюз781595 0.0 10083615
19:30+23зюз61123100 0.0 1010474
22:30+19сз2230100 0.0 101222
18 мая, вт
вт1801:30+17ссз223535 0.0 101114
04:30+17всв223522 0.0 100912
07:30+18ююз113985 0.1 101029
10:30+22ююв5112829 0.1 10091337
13:30+27юз1019190 0.0 10053469
16:30+26зюз915180 0.0 10052543
19:30+21зюз610250 0.0 1007506
22:30+16зюз33270 0.0 101024